DW9864 Weather Reports


time (UTC)temp
C
wind
direction
speed
KPH
gust
KPH
rain 1hr
cm
rain 24hr
cm
rain mn
cm
humidity
%
barometer
mb
20260507223503 17 200 8.0 16.1 0.00 0.00 0.00 60 1011.4
20260507223017 17 199 9.7 16.1 0.00 0.00 0.00 60 1011.3
20260507222503 17 204 9.7 17.7 0.00 0.00 0.00 61 1011.4
20260507222003 17 207 9.7 17.7 0.00 0.00 0.00 62 1011.3
20260507221503 17 213 9.7 16.1 0.00 0.00 0.00 63 1011.2
20260507221003 17 215 8.0 14.5 0.00 0.00 0.00 63 1011.3
20260507220517 17 217 6.4 14.5 0.00 0.00 0.00 63 1011.2
20260507220004 16 231 4.8 14.5 0.00 0.00 0.00 66 1011.3
20260507215503 16 251 3.2 11.3 0.00 0.00 0.00 72 1011.2
20260507215003 16 267 4.8 12.9 0.00 0.00 0.00 71 1011.2
20260507214503 16 282 3.2 12.9 0.00 0.00 0.00 71 1011.2
20260507214017 16 284 3.2 6.4 0.00 0.00 0.00 73 1011.3
20260507213503 16 281 1.6 6.4 0.00 0.00 0.00 73 1011.2
20260507213003 16 284 1.6 6.4 0.00 0.00 0.00 73 1011.2
20260507212503 16 285 1.6 6.4 0.00 0.00 0.00 72 1011.2
20260507212003 16 281 0.0 3.2 0.00 0.00 0.00 72 1011.2
20260507211503 16 281 0.0 3.2 0.00 0.00 0.00 71 1011.2
20260507211003 16 281 0.0 1.6 0.00 0.00 0.00 71 1011.1
20260507210503 16 281 1.6 3.2 0.00 0.00 0.00 71 1011.0
20260507210003 17 281 1.6 4.8 0.00 0.00 0.00 70 1011.0
20260507205503 17 281 1.6 4.8 0.00 0.00 0.00 70 1010.9
20260507205017 17 281 0.0 3.2 0.00 0.00 0.00 69 1010.9
20260507204503 17 281 0.0 1.6 0.00 0.00 0.00 68 1010.8
20260507204003 17 281 0.0 3.2 0.00 0.00 0.00 68 1010.8
20260507203503 17 281 1.6 3.2 0.00 0.00 0.00 66 1010.8
20260507203003 17 280 1.6 4.8 0.00 0.00 0.00 64 1010.6
20260507202503 17 276 3.2 4.8 0.00 0.00 0.00 64 1010.6
20260507202017 17 270 3.2 4.8 0.00 0.00 0.00 64 1010.6
20260507201517 18 264 1.6 4.8 0.00 0.00 0.00 64 1010.5
20260507201003 18 264 3.2 8.0 0.00 0.00 0.00 65 1010.6
20260507200517 18 264 3.2 8.0 0.00 0.00 0.00 65 1010.6
20260507200003 18 260 3.2 6.4 0.00 0.00 0.00 65 1010.4
20260507195517 18 257 3.2 6.4 0.00 0.00 0.00 65 1010.3
20260507195003 18 236 3.2 4.8 0.00 0.00 0.00 66 1010.1
20260507194517 18 204 1.6 4.8 0.00 0.00 0.00 66 1010.0
20260507194003 18 193 1.6 4.8 0.00 0.00 0.00 66 1010.0
20260507193517 18 203 1.6 6.4 0.00 0.00 0.00 65 1009.8
20260507193003 18 235 3.2 6.4 0.00 0.00 0.00 65 1009.8
20260507192503 18 247 3.2 6.4 0.00 0.00 0.00 65 1009.9
20260507192003 18 242 3.2 6.4 0.00 0.00 0.00 64 1009.9
20260507191503 18 191 3.2 6.4 0.00 0.00 0.00 63 1009.9
20260507191003 18 134 1.6 4.8 0.00 0.00 0.00 62 1009.9
20260507190504 19 99 0.0 3.2 0.00 0.00 0.00 63 1010.0
20260507190004 19 99 0.0 3.2 0.00 0.00 0.00 63 1009.9
20260507185503 19 98 0.0 3.2 0.00 0.00 0.00 63 1010.0
20260507185003 20 90 1.6 4.8 0.00 0.00 0.00 61 1009.9
20260507184506 19 98 0.0 4.8 0.00 0.00 0.00 61 1009.7
20260507184504 20 83 1.6 4.8 0.00 0.00 0.00 61 1010.0
20260507184017 20 68 0.0 3.2 0.00 0.00 0.00 62 1009.9
20260507183503 20 77 0.0 3.2 0.00 0.00 0.00 62 1009.9
20260507183057 19 69 0.0 3.2 0.00 0.00 0.00 62 1009.6
20260507183017 20 83 0.0 3.2 0.00 0.00 0.00 62 1010.0
20260507182503 20 82 0.0 3.2 0.00 0.00 0.00 63 1009.9
20260507182017 20 82 0.0 3.2 0.00 0.00 0.00 62 1009.9
20260507181600 19 82 0.0 3.2 0.00 0.00 0.00 61 1009.6
20260507181503 20 83 0.0 3.2 0.00 0.00 0.00 60 1010.0
20260507181017 20 85 1.6 4.8 0.00 0.00 0.00 60 1009.9
20260507180503 20 92 1.6 4.8 0.00 0.00 0.00 59 1009.9
20260507180044 20 101 0.0 4.8 0.00 0.00 0.00 59 1009.4
20260507180003 20 100 0.0 4.8 0.00 0.00 0.00 58 1009.8
20260507175503 20 106 1.6 4.8 0.00 0.00 0.00 59 1009.9
20260507175017 20 149 1.6 9.7 0.00 0.00 0.00 58 1009.8
20260507174547 20 153 0.0 8.0 0.00 0.00 0.00 57 1009.4
20260507174503 20 167 1.6 9.7 0.00 0.00 0.00 58 1009.9
20260507174017 20 171 1.6 6.4 0.00 0.00 0.00 56 1009.8
20260507173503 20 171 0.0 3.2 0.00 0.00 0.00 56 1009.8
20260507173038 20 171 0.0 3.2 0.00 0.00 0.00 58 1009.4
20260507173004 20 171 1.6 3.2 0.00 0.00 0.00 58 1009.8
20260507172503 20 171 1.6 3.2 0.00 0.00 0.00 55 1009.7
20260507172017 20 171 0.0 3.2 0.00 0.00 0.00 57 1009.8
20260507171536 20 171 0.0 3.2 0.00 0.00 0.00 56 1009.4
20260507171517 21 171 0.0 3.2 0.00 0.00 0.00 56 1009.7
20260507171003 21 171 1.6 3.2 0.00 0.00 0.00 57 1009.8
20260507170503 21 171 1.6 6.4 0.00 0.00 0.00 55 1010.0
20260507170017 20 171 0.0 8.0 0.00 0.00 0.00 55 1009.5
20260507170003 21 154 1.6 9.7 0.00 0.00 0.00 55 1009.7
20260507165517 21 99 1.6 9.7 0.00 0.00 0.00 56 1009.9
20260507165003 21 73 1.6 3.2 0.00 0.00 0.00 57 1009.9
20260507164607 21 60 0.0 4.8 0.00 0.00 0.00 57 1009.6
20260507164503 21 136 1.6 4.8 0.00 0.00 0.00 58 1009.9
20260507164003 21 144 3.2 4.8 0.00 0.00 0.00 57 1010.1
20260507163503 21 145 3.2 9.7 0.00 0.00 0.00 56 1009.9
20260507163003 21 141 3.2 12.9 0.00 0.00 0.00 56 1009.8
20260507162503 21 139 3.2 12.9 0.00 0.00 0.00 59 1009.9
20260507162003 21 145 3.2 11.3 0.00 0.00 0.00 59 1009.8
20260507161550 21 194 4.8 8.0 0.00 0.00 0.00 56 1009.4
20260507161503 21 146 3.2 8.0 0.00 0.00 0.00 57 1009.9
20260507161003 21 147 3.2 6.4 0.00 0.00 0.00 58 1009.8
20260507160506 21 145 3.2 11.3 0.00 0.00 0.00 58 1009.8
20260507160045 20 156 3.2 9.7 0.00 0.00 0.00 59 1009.4
20260507160004 21 115 3.2 11.3 0.00 0.00 0.00 59 1009.7
20260507155503 20 96 3.2 6.4 0.00 0.00 0.00 58 1009.8
20260507155003 21 149 3.2 9.7 0.00 0.00 0.00 56 1009.9
20260507154637 21 139 1.6 11.3 0.00 0.00 0.00 56 1009.6
20260507154503 21 171 3.2 12.9 0.00 0.00 0.00 58 1010.1
20260507154003 21 168 3.2 12.9 0.00 0.00 0.00 61 1009.9
20260507153504 21 149 3.2 9.7 0.00 0.00 0.00 62 1010.0
20260507153029 20 129 3.2 8.0 0.00 0.00 0.00 63 1009.7
20260507153003 20 109 3.2 9.7 0.00 0.00 0.00 64 1010.0
20260507152503 20 305 3.2 8.0 0.00 0.00 0.00 65 1010.1
20260507152017 20 305 3.2 8.0 0.00 0.00 0.00 64 1010.1
20260507151603 19 284 1.6 8.0 0.00 0.00 0.00 64 1009.8
20260507151503 20 339 3.2 11.3 0.00 0.00 0.00 65 1010.1
20260507151003 20 43 3.2 14.5 0.00 0.00 0.00 65 1010.0
20260507150503 20 166 4.8 14.5 0.00 0.00 0.00 65 1010.0
20260507150141 20 165 3.2 9.7 0.00 0.00 0.00 63 1009.6
20260507150003 20 130 4.8 11.3 0.00 0.00 0.00 63 1009.9
20260507145503 20 109 3.2 11.3 0.00 0.00 0.00 62 1010.1
20260507145003 20 109 3.2 14.5 0.00 0.00 0.00 63 1010.1
20260507144619 20 108 3.2 12.9 0.00 0.00 0.00 62 1009.9
20260507144503 21 108 3.2 14.5 0.00 0.00 0.00 62 1010.2
20260507144003 20 130 3.2 12.9 0.00 0.00 0.00 62 1010.2
20260507143503 20 156 3.2 12.9 0.00 0.00 0.00 63 1010.2
20260507143017 20 149 4.8 16.1 0.00 0.00 0.00 63 1010.3
20260507142503 20 131 4.8 16.1 0.00 0.00 0.00 62 1010.4
20260507142003 20 134 4.8 19.3 0.00 0.00 0.00 62 1010.4
20260507141503 20 142 4.8 19.3 0.00 0.00 0.00 62 1010.3
20260507141017 20 151 3.2 17.7 0.00 0.00 0.00 62 1010.3
20260507140503 20 142 3.2 9.7 0.00 0.00 0.00 63 1010.5
20260507140003 20 116 3.2 9.7 0.00 0.00 0.00 63 1010.6
20260507135503 20 123 3.2 12.9 0.00 0.00 0.00 63 1010.6
20260507135017 20 129 3.2 12.9 0.00 0.00 0.00 63 1010.6
20260507134517 20 129 3.2 12.9 0.00 0.00 0.00 64 1010.7
20260507134003 20 138 4.8 11.3 0.00 0.00 0.00 63 1010.6
20260507133503 20 156 4.8 12.9 0.00 0.00 0.00 63 1010.6
20260507133017 20 164 4.8 12.9 0.00 0.00 0.00 63 1010.5
20260507132503 20 160 4.8 17.7 0.00 0.00 0.00 63 1010.5
20260507132003 19 152 3.2 17.7 0.00 0.00 0.00 63 1010.7
20260507131503 19 175 3.2 11.3 0.00 0.00 0.00 64 1010.8
20260507131003 19 164 4.8 11.3 0.00 0.00 0.00 64 1010.8
20260507130503 19 128 4.8 17.7 0.00 0.03 0.00 63 1011.0
20260507130004 20 116 4.8 20.9 0.00 0.03 0.00 62 1011.2
20260507125503 20 138 4.8 20.9 0.00 0.03 0.00 63 1011.2
20260507125003 20 137 3.2 14.5 0.00 0.03 0.00 62 1011.2
20260507124503 20 126 3.2 14.5 0.00 0.03 0.00 63 1011.3
20260507124003 20 134 4.8 9.7 0.00 0.03 0.00 62 1011.3
20260507123503 20 137 4.8 11.3 0.00 0.03 0.00 60 1011.3
20260507123003 20 146 4.8 14.5 0.00 0.03 0.00 62 1011.3
20260507122503 20 143 4.8 14.5 0.00 0.03 0.00 61 1011.4
20260507122003 20 121 4.8 14.5 0.00 0.05 0.00 61 1011.4
20260507121503 20 124 4.8 14.5 0.00 0.05 0.00 62 1011.4
20260507121003 19 136 4.8 11.3 0.00 0.05 0.00 62 1011.5
20260507120503 19 133 4.8 11.3 0.00 0.05 0.00 61 1011.5
20260507120004 19 127 4.8 16.1 0.00 0.05 0.00 61 1011.5
20260507115503 19 129 4.8 16.1 0.00 0.05 0.00 62 1011.7
20260507115003 19 135 4.8 20.9 0.00 0.05 0.00 63 1011.7
20260507114503 19 147 4.8 20.9 0.00 0.05 0.00 62 1011.7
20260507114003 19 146 4.8 12.9 0.00 0.05 0.00 63 1011.8
20260507113503 19 131 3.2 12.9 0.00 0.05 0.00 63 1011.7
20260507113017 19 129 3.2 11.3 0.00 0.05 0.00 64 1011.8
20260507112503 19 131 3.2 9.7 0.00 0.05 0.00 62 1011.8
20260507112003 19 154 3.2 11.3 0.00 0.05 0.00 65 1011.8
20260507111517 18 138 3.2 11.3 0.00 0.05 0.00 66 1011.9
20260507111003 18 138 3.2 8.0 0.00 0.05 0.00 66 1011.9
20260507110503 18 128 3.2 8.0 0.00 0.05 0.00 68 1011.9
20260507110017 18 82 3.2 9.7 0.00 0.05 0.00 68 1012.0
20260507105503 17 96 3.2 11.3 0.00 0.05 0.00 68 1012.2
20260507105003 17 124 3.2 11.3 0.00 0.05 0.00 69 1012.3
20260507104504 17 81 3.2 11.3 0.00 0.05 0.00 70 1012.2
20260507104003 17 78 3.2 8.0 0.00 0.05 0.00 70 1012.3
20260507103503 17 103 3.2 8.0 0.00 0.05 0.00 70 1012.4
20260507103003 17 113 3.2 11.3 0.00 0.05 0.00 71 1012.5
20260507102517 17 94 1.6 11.3 0.00 0.05 0.00 70 1012.5
20260507102003 17 80 1.6 9.7 0.00 0.05 0.00 69 1012.6
20260507101517 17 79 1.6 6.4 0.00 0.05 0.00 69 1012.6
20260507101003 16 149 1.6 8.0 0.00 0.05 0.00 68 1012.8
20260507100503 16 154 3.2 11.3 0.00 0.05 0.00 69 1012.8
20260507100003 16 133 3.2 11.3 0.00 0.05 0.00 68 1012.7
20260507095503 16 135 3.2 8.0 0.00 0.05 0.00 68 1012.8
20260507095017 16 140 3.2 8.0 0.00 0.05 0.00 69 1012.9
20260507094503 16 126 3.2 6.4 0.00 0.05 0.00 68 1013.0
20260507094003 16 128 3.2 6.4 0.00 0.05 0.00 69 1013.1
20260507093503 15 141 3.2 4.8 0.00 0.05 0.00 69 1013.1
20260507093017 15 138 3.2 8.0 0.00 0.05 0.00 69 1013.3
20260507092503 15 119 3.2 11.3 0.00 0.05 0.00 70 1013.2
20260507092003 16 81 1.6 11.3 0.00 0.05 0.00 69 1013.3
20260507091503 15 89 1.6 4.8 0.00 0.05 0.00 70 1013.3
20260507091003 15 115 1.6 8.0 0.00 0.05 0.00 70 1013.3
20260507090503 15 131 1.6 8.0 0.00 0.08 0.00 70 1013.3
20260507090017 15 138 1.6 8.0 0.00 0.10 0.00 72 1013.2
20260507085503 15 134 1.6 8.0 0.00 0.10 0.00 72 1013.3
20260507085003 15 44 1.6 4.8 0.00 0.10 0.00 74 1013.3
20260507084517 14 91 3.2 4.8 0.00 0.10 0.00 73 1013.3
20260507084003 14 128 3.2 6.4 0.00 0.10 0.00 74 1013.4
20260507083503 14 153 3.2 6.4 0.00 0.13 0.00 75 1013.3
20260507083003 13 200 1.6 6.4 0.00 0.13 0.00 76 1013.5
20260507082503 13 190 1.6 6.4 0.00 0.13 0.00 78 1013.5
20260507082003 13 173 1.6 8.0 0.00 0.13 0.00 79 1013.4
20260507081503 12 174 1.6 8.0 0.00 0.13 0.00 78 1013.5
20260507081003 12 159 1.6 8.0 0.00 0.13 0.00 80 1013.6
20260507080517 12 158 1.6 6.4 0.00 0.15 0.00 81 1013.6
20260507080003 12 188 1.6 6.4 0.00 0.15 0.00 82 1013.6
20260507075503 12 193 0.0 6.4 0.00 0.18 0.00 82 1013.6
20260507075003 12 195 1.6 6.4 0.00 0.20 0.00 84 1013.6
20260507074503 11 195 1.6 6.4 0.00 0.20 0.00 84 1013.6
20260507074003 11 196 1.6 4.8 0.00 0.20 0.00 86 1013.5
20260507073503 11 205 1.6 6.4 0.00 0.20 0.00 87 1013.6
20260507073003 11 180 3.2 9.7 0.00 0.20 0.00 87 1013.7
20260507072503 10 167 4.8 9.7 0.00 0.20 0.00 88 1013.7
20260507072003 10 174 3.2 8.0 0.00 0.20 0.00 88 1013.7
20260507071503 10 191 3.2 8.0 0.00 0.20 0.00 89 1013.7
20260507071003 10 199 3.2 8.0 0.00 0.20 0.00 90 1013.8
20260507070517 10 193 3.2 8.0 0.00 0.20 0.00 90 1013.8
20260507070004 10 184 3.2 8.0 0.00 0.20 0.00 91 1013.8
20260507065517 9 181 4.8 8.0 0.00 0.20 0.00 91 1014.0
20260507065003 9 185 3.2 8.0 0.00 0.20 0.00 91 1013.9
20260507064503 9 210 3.2 8.0 0.00 0.20 0.00 91 1014.0
20260507064003 8 213 3.2 8.0 0.00 0.20 0.00 92 1014.0
20260507063503 8 196 3.2 8.0 0.00 0.20 0.00 92 1013.9
20260507063003 8 187 3.2 8.0 0.00 0.20 0.00 92 1014.0
20260507062503 8 186 3.2 6.4 0.00 0.20 0.00 92 1013.9
20260507062003 8 183 3.2 6.4 0.00 0.20 0.00 92 1013.9
20260507061503 8 186 3.2 8.0 0.00 0.20 0.00 92 1013.9
20260507061003 8 185 3.2 8.0 0.00 0.23 0.00 92 1014.0
20260507060503 8 179 3.2 6.4 0.00 0.23 0.00 92 1014.0
20260507060003 8 179 3.2 6.4 0.00 0.23 0.00 93 1014.1
20260507055517 8 188 3.2 6.4 0.00 0.23 0.00 93 1014.2
20260507055003 8 214 3.2 6.4 0.00 0.23 0.00 93 1014.2
20260507054503 8 270 1.6 4.8 0.00 0.23 0.00 93 1014.1
20260507054003 8 281 1.6 3.2 0.00 0.23 0.00 92 1014.1
20260507053503 7 282 0.0 3.2 0.00 0.23 0.00 92 1014.1
20260507053003 7 281 0.0 3.2 0.00 0.23 0.00 92 1014.0
20260507052503 7 281 1.6 3.2 0.00 0.23 0.00 92 1014.0
20260507052003 7 281 0.0 3.2 0.00 0.23 0.00 92 1014.1
20260507051503 7 282 1.6 3.2 0.00 0.23 0.00 92 1014.0
20260507051003 8 289 3.2 8.0 0.00 0.25 0.00 92 1013.9
20260507050503 8 294 4.8 9.7 0.00 0.25 0.00 92 1014.0
20260507050003 8 300 3.2 9.7 0.00 0.28 0.00 92 1014.0
20260507045503 8 303 3.2 8.0 0.00 0.33 0.00 92 1014.0
20260507045003 8 298 3.2 6.4 0.00 0.36 0.00 92 1014.0
20260507044517 8 286 1.6 6.4 0.00 0.38 0.00 92 1014.0
20260507044003 8 282 0.0 3.2 0.00 0.41 0.00 92 1013.9
20260507043503 8 282 1.6 3.2 0.00 0.46 0.00 92 1013.8
20260507043003 8 282 0.0 3.2 0.00 0.48 0.00 92 1013.9
20260507042503 8 282 0.0 3.2 0.00 0.51 0.00 92 1013.8
20260507042003 8 282 0.0 3.2 0.00 0.51 0.00 92 1014.0
20260507041503 8 282 0.0 3.2 0.00 0.53 0.00 92 1013.9
20260507041003 8 282 1.6 3.2 0.00 0.53 0.00 92 1013.8
20260507040503 8 282 1.6 3.2 0.00 0.53 0.00 92 1014.0
20260507040003 8 282 1.6 3.2 0.00 0.53 0.00 92 1014.1
20260507035503 8 283 1.6 3.2 0.00 0.53 0.00 92 1014.1
20260507035003 8 283 1.6 4.8 0.00 0.53 0.00 92 1014.1
20260507034503 8 283 1.6 4.8 0.00 0.53 0.00 92 1014.1
20260507034017 8 283 0.0 3.2 0.00 0.53 0.00 92 1014.1
20260507033503 8 283 0.0 1.6 0.00 0.53 0.00 92 1014.1
20260507033003 8 283 0.0 1.6 0.00 0.53 0.00 92 1014.1
20260507032503 8 283 0.0 3.2 0.00 0.53 0.00 91 1014.1
20260507032017 8 283 0.0 3.2 0.00 0.53 0.00 92 1014.2
20260507031517 8 278 1.6 4.8 0.00 0.53 0.00 92 1014.0
20260507031003 8 287 3.2 6.4 0.00 0.53 0.00 92 1014.1
20260507030503 8 289 3.2 8.0 0.00 0.53 0.00 92 1014.1
20260507030017 8 293 3.2 11.3 0.00 0.53 0.00 92 1014.2
20260507025503 8 296 3.2 11.3 0.00 0.53 0.00 92 1014.2
20260507025003 8 285 3.2 6.4 0.00 0.53 0.00 92 1014.1
20260507024503 8 279 3.2 6.4 0.00 0.53 0.00 92 1014.0
20260507024003 8 274 1.6 6.4 0.00 0.53 0.00 92 1014.1
20260507023518 8 264 1.6 4.8 0.00 0.53 0.00 92 1014.2
20260507023003 8 250 1.6 4.8 0.00 0.53 0.00 92 1014.2
20260507022503 8 227 1.6 4.8 0.00 0.53 0.00 92 1014.2
20260507022003 8 200 0.0 1.6 0.00 0.53 0.00 92 1014.3
20260507021517 8 200 0.0 1.6 0.00 0.53 0.00 92 1014.3
20260507021017 8 200 0.0 1.6 0.00 0.53 0.00 92 1014.2
20260507020503 8 200 0.0 1.6 0.00 0.53 0.00 92 1014.3
20260507020003 8 200 0.0 1.6 0.00 0.53 0.00 92 1014.2
20260507015503 8 200 0.0 1.6 0.00 0.53 0.00 92 1014.3
20260507015003 8 200 0.0 1.6 0.00 0.53 0.00 92 1014.3
20260507014503 8 200 0.0 3.2 0.00 0.53 0.00 92 1014.3
20260507014003 8 200 1.6 4.8 0.00 0.53 0.00 92 1014.3
20260507013517 8 241 1.6 6.4 0.00 0.53 0.00 91 1014.4
20260507013017 8 309 3.2 6.4 0.00 0.53 0.00 91 1014.5
20260507012517 8 290 3.2 6.4 0.00 0.53 0.00 92 1014.5
20260507012017 9 255 3.2 6.4 0.00 0.53 0.00 92 1014.5
20260507011503 9 248 1.6 4.8 0.00 0.53 0.00 91 1014.5
20260507011003 9 248 0.0 4.8 0.00 0.53 0.00 91 1014.4
20260507010503 9 248 0.0 3.2 0.00 0.53 0.00 91 1014.5
20260507010003 9 248 0.0 3.2 0.00 0.53 0.00 91 1014.5
20260507005503 9 248 0.0 3.2 0.00 0.53 0.00 91 1014.5
20260507005003 9 248 0.0 3.2 0.00 0.53 0.00 91 1014.5
20260507004503 10 248 1.6 4.8 0.00 0.53 0.00 91 1014.6
20260507004003 10 241 1.6 4.8 0.00 0.53 0.00 91 1014.7
20260507003503 9 207 1.6 4.8 0.00 0.53 0.00 91 1014.7
20260507003003 10 271 3.2 6.4 0.00 0.53 0.00 91 1014.8
20260507002503 10 300 3.2 6.4 0.00 0.53 0.00 91 1014.8
20260507002003 10 294 1.6 4.8 0.00 0.53 0.00 91 1014.8
20260507001503 10 294 0.0 4.8 0.00 0.53 0.00 91 1014.8
20260507001003 10 295 0.0 1.6 0.00 0.53 0.00 91 1014.8
20260507000503 10 295 0.0 1.6 0.00 0.53 0.00 91 1014.9
20260507000003 10 295 0.0 3.2 0.00 0.53 0.00 91 1014.9
20260506235517 10 305 1.6 4.8 0.00 0.53 0.00 91 1015.0
20260506235003 10 311 1.6 4.8 0.00 0.53 0.00 92 1014.9
20260506234503 10 309 1.6 4.8 0.00 0.53 0.00 91 1014.9
20260506234003 10 297 3.2 4.8 0.00 0.53 0.00 91 1015.0
20260506233503 10 291 3.2 4.8 0.00 0.53 0.00 91 1015.1
20260506233003 10 292 1.6 4.8 0.00 0.53 0.00 91 1015.2
20260506232503 10 292 0.0 3.2 0.00 0.53 0.00 91 1015.2
20260506232003 10 291 0.0 4.8 0.00 0.53 0.00 91 1015.1
20260506231503 10 298 1.6 9.7 0.00 0.53 0.00 91 1015.2
20260506231003 10 304 3.2 9.7 0.00 0.53 0.00 91 1015.2
20260506230503 10 313 1.6 6.4 0.00 0.53 0.00 91 1015.3
20260506230017 10 334 0.0 3.2 0.00 0.53 0.00 91 1015.4
20260506225503 10 334 0.0 1.6 0.00 0.53 0.00 90 1015.2
20260506225003 10 334 0.0 3.2 0.00 0.53 0.00 90 1015.3
20260506224503 10 334 0.0 3.2 0.00 0.53 0.00 90 1015.3
20260506224003 10 334 0.0 3.2 0.00 0.53 0.00 90 1015.2